Hourly Weather Rusilovo

Today, 16 April, Friday

Time Temperature Precipitation Wind Pressure Humidity
00:00 +3°C° 0 mm 5 mps 761 mmHg 67%
01:00 +3°C° 0 mm 5 mps 761 mmHg 70%
02:00 +3°C° 0 mm 4 mps 761 mmHg 73%
03:00 +3°C° 0 mm 4 mps 761 mmHg 76%
04:00 +3°C° 0 mm 4 mps 761 mmHg 78%
05:00 +1°C° 0 mm 4 mps 761 mmHg 81%
06:00 +3°C° 0 mm 4 mps 761 mmHg 78%
07:00 +3°C° 0 mm 5 mps 761 mmHg 74%
08:00 +3°C° 0 mm 5 mps 761 mmHg 71%
09:00 +6°C° 0 mm 5 mps 761 mmHg 67%
10:00 +8°C° 0 mm 5 mps 761 mmHg 63%
11:00 +9°C° 0 mm 5 mps 761 mmHg 59%
12:00 +10°C° 0 mm 5 mps 761 mmHg 58%
13:00 +11°C° 0 mm 6 mps 761 mmHg 57%
14:00 +11°C° 0 mm 6 mps 761 mmHg 56%
15:00 +12°C° 0 mm 5 mps 761 mmHg 57%
16:00 +12°C° 0 mm 5 mps 761 mmHg 59%
17:00 +12°C° 0 mm 5 mps 761 mmHg 60%
18:00 +10°C° 0 mm 5 mps 761 mmHg 62%
19:00 +9°C° 0 mm 5 mps 761 mmHg 64%
20:00 +8°C° 0 mm 4 mps 762 mmHg 67%
21:00 +8°C° 0 mm 4 mps 762 mmHg 67%
22:00 +7°C° 0 mm 4 mps 762 mmHg 67%
23:00 +7°C° 0 mm 4 mps 762 mmHg 67%

Tomorrow, 17 April, Saturday

Time Temperature Precipitation Wind Pressure Humidity
00:00 +6°C° 0 mm 4 mps 762 mmHg 68%
01:00 +6°C° 0 mm 4 mps 762 mmHg 68%
02:00 +5°C° 0 mm 4 mps 762 mmHg 69%
03:00 +5°C° 0 mm 4 mps 762 mmHg 70%
04:00 +4°C° 0 mm 4 mps 762 mmHg 72%
05:00 +4°C° 0 mm 4 mps 762 mmHg 73%
06:00 +4°C° 0 mm 4 mps 762 mmHg 71%
07:00 +5°C° 0 mm 4 mps 763 mmHg 68%
08:00 +6°C° 0 mm 4 mps 763 mmHg 65%
09:00 +7°C° 0 mm 4 mps 763 mmHg 62%
10:00 +10°C° 0 mm 4 mps 763 mmHg 60%
11:00 +11°C° 0 mm 4 mps 763 mmHg 57%
12:00 +11°C° 0 mm 4 mps 763 mmHg 57%
13:00 +12°C° 0 mm 4 mps 763 mmHg 57%
14:00 +12°C° 0 mm 4 mps 763 mmHg 57%
15:00 +12°C° 0 mm 4 mps 763 mmHg 57%
16:00 +13°C° 0 mm 4 mps 763 mmHg 56%
17:00 +13°C° 0 mm 4 mps 763 mmHg 56%
18:00 +12°C° 0 mm 3 mps 763 mmHg 59%
19:00 +10°C° 0 mm 3 mps 763 mmHg 63%
20:00 +9°C° 0 mm 3 mps 763 mmHg 66%
21:00 +8°C° 0 mm 3 mps 763 mmHg 66%
22:00 +8°C° 0 mm 3 mps 763 mmHg 66%
23:00 +7°C° 0 mm 3 mps 763 mmHg 66%

Day after tomorrow, 18 April, Sunday

Time Temperature Precipitation Wind Pressure Humidity
00:00 +5°C° 0 mm 3 mps 763 mmHg 68%
01:00 +5°C° 0 mm 3 mps 763 mmHg 71%
02:00 +4°C° 0 mm 3 mps 763 mmHg 73%
03:00 +4°C° 0 mm 3 mps 763 mmHg 75%
04:00 +3°C° 0 mm 3 mps 763 mmHg 77%
05:00 +3°C° 0 mm 3 mps 763 mmHg 79%
06:00 +4°C° 0 mm 3 mps 763 mmHg 72%
07:00 +6°C° 0 mm 4 mps 763 mmHg 66%
08:00 +7°C° 0 mm 4 mps 763 mmHg 59%
09:00 +8°C° 0 mm 4 mps 763 mmHg 53%
10:00 +11°C° 0 mm 4 mps 763 mmHg 47%
11:00 +12°C° 0 mm 5 mps 762 mmHg 41%
12:00 +13°C° 0 mm 4 mps 762 mmHg 39%
13:00 +13°C° 0 mm 4 mps 762 mmHg 37%
14:00 +14°C° 0 mm 4 mps 762 mmHg 35%
15:00 +13°C° 0 mm 4 mps 762 mmHg 37%
16:00 +13°C° 0 mm 4 mps 762 mmHg 39%
17:00 +13°C° 0 mm 4 mps 762 mmHg 40%
18:00 +11°C° 0 mm 3 mps 762 mmHg 47%
19:00 +10°C° 0 mm 3 mps 762 mmHg 53%
20:00 +8°C° 0 mm 2 mps 762 mmHg 59%
21:00 +7°C° 0 mm 3 mps 762 mmHg 62%
22:00 +7°C° 0 mm 3 mps 762 mmHg 65%
23:00 +5°C° 0 mm 3 mps 762 mmHg 68%

19 April, Monday

Time Temperature Precipitation Wind Pressure Humidity
00:00 +5°C° 0 mm 3 mps 762 mmHg 71%
01:00 +4°C° 0 mm 3 mps 762 mmHg 73%
02:00 +4°C° 0 mm 3 mps 762 mmHg 76%
03:00 +3°C° 0 mm 3 mps 762 mmHg 79%
04:00 +3°C° 0 mm 3 mps 762 mmHg 81%
05:00 +3°C° 0 mm 3 mps 762 mmHg 84%
06:00 +4°C° 0 mm 3 mps 762 mmHg 78%
07:00 +7°C° 0 mm 3 mps 762 mmHg 71%
08:00 +8°C° 0 mm 3 mps 762 mmHg 65%
09:00 +8°C° 0 mm 4 mps 762 mmHg 60%
10:00 +11°C° 0 mm 4 mps 762 mmHg 55%
11:00 +12°C° 0 mm 4 mps 762 mmHg 50%
12:00 +12°C° 0 mm 4 mps 761 mmHg 52%
13:00 +12°C° 0 mm 4 mps 761 mmHg 55%
14:00 +11°C° 0 mm 4 mps 761 mmHg 57%
15:00 +11°C° 0 mm 4 mps 761 mmHg 59%
16:00 +11°C° 0 mm 4 mps 761 mmHg 62%
17:00 +10°C° 0 mm 4 mps 761 mmHg 64%
18:00 +8°C° 0 mm 4 mps 761 mmHg 69%
19:00 +7°C° 0 mm 4 mps 761 mmHg 74%
20:00 +7°C° 0 mm 3 mps 761 mmHg 78%
21:00 +7°C° 0 mm 3 mps 760 mmHg 80%
22:00 +5°C° 0 mm 3 mps 760 mmHg 82%
23:00 +5°C° 0 mm 3 mps 760 mmHg 84%

20 April, Tuesday

Time Temperature Precipitation Wind Pressure Humidity
00:00 +5°C° 0 mm 3 mps 759 mmHg 83%
01:00 +5°C° 0 mm 3 mps 759 mmHg 81%
02:00 +6°C° 0 mm 4 mps 759 mmHg 80%
03:00 +5°C° 0 mm 4 mps 758 mmHg 80%
04:00 +5°C° 0 mm 4 mps 758 mmHg 81%
05:00 +5°C° 0 mm 4 mps 758 mmHg 82%
06:00 +5°C° 0 mm 4 mps 757 mmHg 79%
07:00 +6°C° 0 mm 4 mps 757 mmHg 76%
08:00 +6°C° 0 mm 4 mps 756 mmHg 74%
09:00 +7°C° 0 mm 5 mps 756 mmHg 68%
10:00 +8°C° 0 mm 5 mps 755 mmHg 63%
11:00 +9°C° 0 mm 5 mps 755 mmHg 58%
12:00 +9°C° 0 mm 5 mps 754 mmHg 56%
13:00 +9°C° 0 mm 5 mps 753 mmHg 54%
14:00 +9°C° 0 mm 6 mps 752 mmHg 52%
15:00 +9°C° 0 mm 6 mps 751 mmHg 54%
16:00 +9°C° 0 mm 6 mps 751 mmHg 56%
17:00 +9°C° 0 mm 6 mps 750 mmHg 58%
18:00 +8°C° 0.2 mm 6 mps 749 mmHg 64%
19:00 +7°C° 0.2 mm 6 mps 748 mmHg 70%
20:00 +5°C° 0.2 mm 6 mps 748 mmHg 76%
21:00 +5°C° 0.8 mm 6 mps 747 mmHg 82%
22:00 +4°C° 0.8 mm 6 mps 746 mmHg 87%
23:00 +3°C° 0.8 mm 6 mps 745 mmHg 92%

21 April, Wednesday

Time Temperature Precipitation Wind Pressure Humidity
00:00 +4°C° 0.6 mm 6 mps 744 mmHg 93%
01:00 +5°C° 0.6 mm 5 mps 743 mmHg 93%
02:00 +5°C° 0.6 mm 5 mps 742 mmHg 93%
03:00 +5°C° 1.1 mm 5 mps 742 mmHg 93%
04:00 +5°C° 1.1 mm 5 mps 741 mmHg 93%
05:00 +5°C° 1.1 mm 5 mps 740 mmHg 93%
06:00 +5°C° 0.7 mm 4 mps 740 mmHg 93%
07:00 +5°C° 0.7 mm 4 mps 740 mmHg 93%
08:00 +5°C° 0.7 mm 4 mps 739 mmHg 93%
09:00 +5°C° 0.3 mm 3 mps 739 mmHg 93%
10:00 +5°C° 0.3 mm 3 mps 739 mmHg 93%
11:00 +5°C° 0.3 mm 3 mps 738 mmHg 93%
12:00 +6°C° 0.2 mm 2 mps 738 mmHg 93%
13:00 +7°C° 0.2 mm 2 mps 738 mmHg 94%
14:00 +8°C° 0.2 mm 1 mps 738 mmHg 94%
15:00 +8°C° 0.4 mm 1 mps 738 mmHg 95%
16:00 +7°C° 0.4 mm 1 mps 738 mmHg 96%
17:00 +7°C° 0.4 mm 1 mps 739 mmHg 97%
18:00 +7°C° 0.1 mm 1 mps 739 mmHg 97%
19:00 +7°C° 0.1 mm 1 mps 739 mmHg 98%
20:00 +7°C° 0.1 mm 1 mps 740 mmHg 98%
21:00 +6°C° 0.1 mm 2 mps 740 mmHg 98%
22:00 +6°C° 0.1 mm 2 mps 740 mmHg 97%
23:00 +6°C° 0.1 mm 2 mps 741 mmHg 97%
Show more